Weather History for Hays, KS

Change the Weather History Date:

Saturday, November 30, 2013

  Actual Average Record
Temperature  
Mean Temperature 42 °F -  
Max Temperature 64 °F 46 °F 66 °F (2003)
Min Temperature 21 °F 24 °F 6 °F (2004)
Degree Days  
Heating Degree Days 22    
Moisture  
Dew Point 25 °F    
Average Humidity 61    
Maximum Humidity 93    
Minimum Humidity 24    
Precipitation  
Precipitation 0.00 in - - ()
Sea Level Pressure  
Sea Level Pressure 30.10 in    
Wind  
Wind Speed 6 mph (WNW)    
Max Wind Speed 10 mph    
Max Gust Speed -    
Visibility 10 miles    
Events      
Averages and records for this station are not official NWS values.
T = Trace of Precipitation, MM = Missing Value Source: NWS Daily Summary

Daily Weather History Graph

Daily Weather History Graph

Search for Another Location

Airport:

Trip Planner

Search our weather history database for the weather conditions in past years. The results will help you decide how hot, cold, wet, or windy it might be!

Date:

Astronomy

Nov. 30, 2013 Rise Set
Actual Time 7:35 AM CST 5:15 PM CST
Civil Twilight 7:06 AM CST 5:45 PM CST
Nautical Twilight 6:33 AM CST 6:18 PM CST
Astronomical Twilight 6:01 AM CST 6:50 PM CST
Moon 4:49 AM CST (11/30) 3:40 PM CST (11/30)
Length of Visible Light 10h 38m
Length of Day
9h 39m
Waning Crescent, 7% of the Moon is Illuminated
Nov 30
Waning Crescent
Dec 2
New
Dec 9
First Quarter
Dec 17
Full
Dec 25
Last Quarter

Hourly Weather History & Observations

Time (CST) Temp. Windchill Dew Point Humidity Pressure Visibility Wind Dir Wind Speed Gust Speed Precip Events Conditions
12:15 AM 30.2 °F 23.4 °F 24.8 °F 80% 30.09 in 10.0 mi WNW 6.9 mph - N/A   Clear
12:35 AM 28.4 °F 20.4 °F 24.8 °F 86% 30.09 in 10.0 mi NW 8.1 mph - N/A   Clear
12:55 AM 28.4 °F 19.7 °F 24.8 °F 86% 30.09 in 10.0 mi NW 9.2 mph - N/A   Clear
1:15 AM 30.2 °F 22.6 °F 24.8 °F 80% 30.09 in 10.0 mi NW 8.1 mph - N/A   Clear
1:35 AM 30.2 °F 21.9 °F 26.6 °F 86% 30.09 in 10.0 mi NW 9.2 mph - N/A   Clear
1:55 AM 30.2 °F 21.3 °F 24.8 °F 80% 30.09 in 10.0 mi NW 10.4 mph - N/A   Clear
2:15 AM 30.2 °F 24.3 °F 24.8 °F 80% 30.09 in 10.0 mi NW 5.8 mph - N/A   Clear
2:35 AM 28.4 °F 24.6 °F 24.8 °F 86% 30.10 in 10.0 mi WSW 3.5 mph - N/A   Clear
2:55 AM 26.6 °F 19.1 °F 21.2 °F 80% 30.10 in 10.0 mi West 6.9 mph - N/A   Clear
3:15 AM 24.8 °F 16.9 °F 21.2 °F 86% 30.10 in 10.0 mi WNW 6.9 mph - N/A   Clear
3:35 AM 24.8 °F 19.1 °F 21.2 °F 86% 30.10 in 10.0 mi West 4.6 mph - N/A   Clear
3:55 AM 24.8 °F 16.9 °F 19.4 °F 80% 30.11 in 10.0 mi WSW 6.9 mph - N/A   Clear
4:15 AM 24.8 °F 17.9 °F 21.2 °F 86% 30.11 in 10.0 mi West 5.8 mph - N/A   Clear
4:35 AM 26.6 °F 21.2 °F 23.0 °F 86% 30.10 in 10.0 mi West 4.6 mph - N/A   Clear
4:55 AM 24.8 °F 16.9 °F 21.2 °F 86% 30.10 in 10.0 mi WSW 6.9 mph - N/A   Clear
5:15 AM 24.8 °F 16.9 °F 19.4 °F 80% 30.11 in 10.0 mi West 6.9 mph - N/A   Clear
5:35 AM 24.8 °F 17.9 °F 19.4 °F 80% 30.11 in 10.0 mi West 5.8 mph - N/A   Clear
5:55 AM 23.0 °F 17.0 °F 19.4 °F 86% 30.11 in 10.0 mi WNW 4.6 mph - N/A   Clear
6:15 AM 23.0 °F - 17.6 °F 80% 30.11 in 10.0 mi Calm Calm - N/A   Clear
6:35 AM 21.2 °F 16.4 °F 19.4 °F 93% 30.12 in 10.0 mi WNW 3.5 mph - N/A   Clear
6:55 AM 23.0 °F 14.7 °F 19.4 °F 86% 30.13 in 10.0 mi WNW 6.9 mph - N/A   Clear
7:15 AM 21.2 °F 13.6 °F 17.6 °F 86% 30.13 in 10.0 mi WNW 5.8 mph - N/A   Clear
7:35 AM 21.2 °F 12.6 °F 19.4 °F 93% 30.13 in 10.0 mi WNW 6.9 mph - N/A   Clear
7:55 AM 21.2 °F 14.9 °F 17.6 °F 86% 30.13 in 10.0 mi West 4.6 mph - N/A   Clear
8:15 AM 24.8 °F 17.9 °F 21.2 °F 86% 30.13 in 10.0 mi WSW 5.8 mph - N/A   Clear
8:35 AM 28.4 °F 23.3 °F 23.0 °F 80% 30.13 in 10.0 mi WSW 4.6 mph - N/A   Clear
8:55 AM 30.2 °F 26.7 °F 26.6 °F 86% 30.14 in 10.0 mi West 3.5 mph - N/A   Clear
9:15 AM 33.8 °F 28.6 °F 28.4 °F 81% 30.14 in 10.0 mi WNW 5.8 mph - N/A   Clear
9:35 AM 35.6 °F 29.9 °F 28.4 °F 75% 30.14 in 10.0 mi WNW 6.9 mph - N/A   Clear
9:55 AM 39.2 °F 33.6 °F 30.2 °F 70% 30.14 in 10.0 mi NW 8.1 mph - N/A   Clear
10:15 AM 42.8 °F 38.6 °F 32.0 °F 66% 30.14 in 10.0 mi WNW 6.9 mph - N/A   Clear
10:35 AM 44.6 °F 41.4 °F 32.0 °F 61% 30.14 in 10.0 mi NW 5.8 mph - N/A   Clear
10:55 AM 46.4 °F 43.5 °F 33.8 °F 62% 30.15 in 10.0 mi WNW 5.8 mph - N/A   Clear
11:15 AM 48.2 °F - 33.8 °F 58% 30.14 in 10.0 mi NW 8.1 mph - N/A   Clear
11:35 AM 51.8 °F - 33.8 °F 50% 30.13 in 10.0 mi WNW 5.8 mph - N/A   Clear
11:55 AM 53.6 °F - 33.8 °F 47% 30.12 in 10.0 mi Calm Calm - N/A   Clear
12:15 PM 55.4 °F - 32.0 °F 41% 30.12 in 10.0 mi WNW 5.8 mph - N/A   Clear
12:35 PM 57.2 °F - 30.2 °F 36% 30.11 in 10.0 mi WNW 5.8 mph - N/A   Clear
12:55 PM 59.0 °F - 30.2 °F 34% 30.11 in 10.0 mi West 5.8 mph - N/A   Clear
1:15 PM 60.8 °F - 30.2 °F 31% 30.11 in 10.0 mi NW 5.8 mph - N/A   Clear
1:35 PM 60.8 °F - 28.4 °F 29% 30.10 in 10.0 mi NW 4.6 mph - N/A   Clear
1:55 PM 62.6 °F - 28.4 °F 27% 30.09 in 10.0 mi WNW 5.8 mph - N/A   Clear
2:15 PM 62.6 °F - 28.4 °F 27% 30.09 in 10.0 mi NW 6.9 mph - N/A   Clear
2:35 PM 62.6 °F - 28.4 °F 27% 30.09 in 10.0 mi NNW 5.8 mph - N/A   Clear
2:55 PM 62.6 °F - 28.4 °F 27% 30.08 in 10.0 mi NW 4.6 mph - N/A   Clear
3:15 PM 64.4 °F - 28.4 °F 26% 30.07 in 10.0 mi NNW 4.6 mph - N/A   Clear
3:35 PM 64.4 °F - 26.6 °F 24% 30.07 in 10.0 mi NNW 6.9 mph - N/A   Clear
3:55 PM 64.4 °F - 26.6 °F 24% 30.07 in 10.0 mi North 5.8 mph - N/A   Clear
4:15 PM 62.6 °F - 26.6 °F 26% 30.07 in 10.0 mi North 6.9 mph - N/A   Clear
4:35 PM 60.8 °F - 26.6 °F 27% 30.07 in 10.0 mi North 4.6 mph - N/A   Clear
4:55 PM 59.0 °F - 26.6 °F 29% 30.07 in 10.0 mi North 3.5 mph - N/A   Clear
5:15 PM 57.2 °F - 26.6 °F 31% 30.07 in 10.0 mi Calm Calm - N/A   Clear
5:35 PM 57.2 °F - 26.6 °F 31% 30.08 in 10.0 mi Calm Calm - N/A   Clear
5:55 PM 51.8 °F - 24.8 °F 35% 30.09 in 10.0 mi Calm Calm - N/A   Clear
6:15 PM 51.8 °F - 24.8 °F 35% 30.09 in 10.0 mi Calm Calm - N/A   Clear
6:35 PM 50.0 °F - 26.6 °F 40% 30.09 in 10.0 mi Calm Calm - N/A   Clear
6:55 PM 46.4 °F - 24.8 °F 43% 30.09 in 10.0 mi Calm Calm - N/A   Clear
7:15 PM 44.6 °F 43.1 °F 24.8 °F 46% 30.10 in 10.0 mi West 3.5 mph - N/A   Clear
7:35 PM 41.0 °F 36.4 °F 24.8 °F 53% 30.09 in 10.0 mi WSW 6.9 mph - N/A   Clear
7:55 PM 39.2 °F 35.0 °F 24.8 °F 56% 30.09 in 10.0 mi SW 5.8 mph - N/A   Clear
8:15 PM 39.2 °F 37.0 °F 24.8 °F 56% 30.09 in 10.0 mi West 3.5 mph - N/A   Clear
8:35 PM 42.8 °F 41.1 °F 24.8 °F 49% 30.09 in 10.0 mi NE 3.5 mph - N/A   Clear
8:55 PM 37.4 °F - 23.0 °F 56% 30.09 in 10.0 mi Calm Calm - N/A   Clear
9:15 PM 42.8 °F - 26.6 °F 53% 30.09 in 10.0 mi Calm Calm - N/A   Clear
9:35 PM 39.2 °F - 23.0 °F 52% 30.10 in 10.0 mi Calm Calm - N/A   Clear
9:55 PM 33.8 °F 30.8 °F 21.2 °F 60% 30.10 in 10.0 mi NW 3.5 mph - N/A   Clear
10:15 PM 33.8 °F 27.7 °F 23.0 °F 65% 30.11 in 10.0 mi NW 6.9 mph - N/A   Clear
10:35 PM 32.0 °F 28.7 °F 23.0 °F 69% 30.11 in 10.0 mi NNW 3.5 mph - N/A   Clear
10:55 PM 32.0 °F 28.7 °F 24.8 °F 75% 30.11 in 10.0 mi SW 3.5 mph - N/A   Clear
11:15 PM 30.2 °F 25.4 °F 21.2 °F 69% 30.11 in 10.0 mi West 4.6 mph - N/A   Clear
11:35 PM 33.8 °F 29.6 °F 24.8 °F 70% 30.11 in 10.0 mi West 4.6 mph - N/A   Clear
11:55 PM 35.6 °F 31.7 °F 24.8 °F 65% 30.11 in 10.0 mi NW 4.6 mph - N/A   Clear